Time,TemperatureF,DewpointF,PressureIn,WindDirection,WindDirectionDegrees,WindSpeedMPH,WindSpeedGustMPH,Humidity,HourlyPrecipIn,Conditions,Clouds,dailyrainin,SoftwareType,DateUTC
2017-01-20 00:08:00,64.3,-99.9,30.04,SSE,159,3.0,6.0,0,0.00,,,0.00,weatherlink.com 1.10,2017-01-20 10:08:00,
2017-01-20 00:25:00,64.3,-99.9,30.04,South,169,8.0,9.0,0,0.00,,,0.00,weatherlink.com 1.10,2017-01-20 10:25:00,
2017-01-20 00:40:00,64.5,-99.9,30.03,SE,136,2.0,6.0,0,0.00,,,0.00,weatherlink.com 1.10,2017-01-20 10:40:00,
2017-01-20 00:56:00,64.8,-99.9,30.03,South,189,2.0,6.0,0,0.00,,,0.00,weatherlink.com 1.10,2017-01-20 10:56:00,
2017-01-20 01:12:00,64.5,-99.9,30.02,SSW,201,1.0,3.0,0,0.00,,,0.00,weatherlink.com 1.10,2017-01-20 11:12:00,
2017-01-20 01:28:00,63.7,-99.9,30.02,SSW,211,1.0,4.0,0,0.00,,,0.00,weatherlink.com 1.10,2017-01-20 11:28:00,
2017-01-20 01:44:00,63.1,-99.9,30.02,SSW,193,4.0,5.0,0,0.00,,,0.00,weatherlink.com 1.10,2017-01-20 11:44:00,
2017-01-20 02:00:00,62.8,-99.9,30.02,SW,224,3.0,6.0,0,0.00,,,0.00,weatherlink.com 1.10,2017-01-20 12:00:00,
2017-01-20 02:16:00,62.6,-99.9,30.01,SSW,209,3.0,7.0,0,0.00,,,0.00,weatherlink.com 1.10,2017-01-20 12:16:00,
2017-01-20 02:32:00,62.4,-99.9,30.01,SSW,211,3.0,6.0,0,0.00,,,0.00,weatherlink.com 1.10,2017-01-20 12:32:00,
2017-01-20 02:48:00,62.2,-99.9,30.00,SW,229,1.0,4.0,0,0.00,,,0.00,weatherlink.com 1.10,2017-01-20 12:48:00,
2017-01-20 03:03:00,61.9,-99.9,30.00,SSW,200,3.0,5.0,0,0.00,,,0.00,weatherlink.com 1.10,2017-01-20 13:03:00,
2017-01-20 03:20:00,61.6,-99.9,30.00,SW,231,1.0,3.0,0,0.00,,,0.00,weatherlink.com 1.10,2017-01-20 13:20:00,
2017-01-20 03:35:00,61.4,-99.9,30.00,SSW,209,2.0,6.0,0,0.00,,,0.00,weatherlink.com 1.10,2017-01-20 13:35:00,
2017-01-20 03:51:00,61.3,-99.9,30.00,SW,222,1.0,4.0,0,0.00,,,0.00,weatherlink.com 1.10,2017-01-20 13:51:00,
2017-01-20 04:07:00,61.2,-99.9,30.00,SW,222,2.0,3.0,0,0.00,,,0.00,weatherlink.com 1.10,2017-01-20 14:07:00,
2017-01-20 04:23:00,60.9,-99.9,29.99,South,191,2.0,5.0,0,0.00,,,0.00,weatherlink.com 1.10,2017-01-20 14:23:00,
2017-01-20 04:38:00,61.2,-99.9,29.99,SSW,200,1.0,5.0,0,0.00,,,0.00,weatherlink.com 1.10,2017-01-20 14:38:00,
2017-01-20 04:55:00,60.8,-99.9,29.99,SSE,168,3.0,5.0,0,0.00,,,0.00,weatherlink.com 1.10,2017-01-20 14:55:00,
2017-01-20 05:10:00,60.9,-99.9,29.99,SE,144,4.0,6.0,0,0.00,,,0.00,weatherlink.com 1.10,2017-01-20 15:10:00,
2017-01-20 05:42:00,61.1,-99.9,30.01,SSW,194,4.0,7.0,0,0.00,,,0.00,weatherlink.com 1.10,2017-01-20 15:42:00,
2017-01-20 05:58:00,61.4,-99.9,30.01,SSW,196,4.0,6.0,0,0.00,,,0.00,weatherlink.com 1.10,2017-01-20 15:58:00,
2017-01-20 06:13:00,61.6,-99.9,30.01,South,187,3.0,5.0,0,0.00,,,0.00,weatherlink.com 1.10,2017-01-20 16:13:00,
2017-01-20 06:30:00,62.1,-99.9,30.02,South,173,4.0,7.0,0,0.00,,,0.00,weatherlink.com 1.10,2017-01-20 16:30:00,
2017-01-20 06:46:00,62.6,-99.9,30.02,South,176,4.0,6.0,0,0.00,,,0.00,weatherlink.com 1.10,2017-01-20 16:46:00,
2017-01-20 07:01:00,62.4,-99.9,30.02,SE,140,4.0,8.0,0,0.00,,,0.00,weatherlink.com 1.10,2017-01-20 17:01:00,
2017-01-20 07:18:00,62.4,-99.9,30.03,South,173,3.0,7.0,0,0.00,,,0.00,weatherlink.com 1.10,2017-01-20 17:18:00,
2017-01-20 07:33:00,62.5,-99.9,30.03,SSE,159,3.0,6.0,0,0.00,,,0.00,weatherlink.com 1.10,2017-01-20 17:33:00,
2017-01-20 07:50:00,63.0,-99.9,30.03,SSE,161,4.0,5.0,0,0.00,,,0.00,weatherlink.com 1.10,2017-01-20 17:50:00,
2017-01-20 08:05:00,63.7,-99.9,30.03,SSE,165,2.0,7.0,0,0.00,,,0.00,weatherlink.com 1.10,2017-01-20 18:05:00,
2017-01-20 08:21:00,64.4,-99.9,30.03,South,182,2.0,9.0,0,0.00,,,0.00,weatherlink.com 1.10,2017-01-20 18:21:00,
2017-01-20 08:36:00,64.9,-99.9,30.04,SSE,160,3.0,5.0,0,0.00,,,0.00,weatherlink.com 1.10,2017-01-20 18:36:00,
2017-01-20 08:53:00,65.6,-99.9,30.04,SE,129,4.0,6.0,0,0.00,,,0.00,weatherlink.com 1.10,2017-01-20 18:53:00,
2017-01-20 09:08:00,66.8,-99.9,30.04,ENE,74,0.0,5.0,0,0.00,,,0.00,weatherlink.com 1.10,2017-01-20 19:08:00,
2017-01-20 09:25:00,67.7,-99.9,30.05,NE,55,0.0,7.0,0,0.00,,,0.00,weatherlink.com 1.10,2017-01-20 19:25:00,
2017-01-20 09:40:00,68.3,-99.9,30.05,NNE,16,5.0,7.0,0,0.00,,,0.00,weatherlink.com 1.10,2017-01-20 19:40:00,
2017-01-20 09:56:00,68.6,-10.0,30.05,NE,34,0.0,7.0,4,0.00,,,0.00,weatherlink.com 1.10,2017-01-20 19:56:00,
2017-01-20 10:12:00,69.3,-36.0,30.06,NNW,331,5.0,6.0,1,0.00,,,0.00,weatherlink.com 1.10,2017-01-20 20:12:00,
2017-01-20 10:28:00,70.1,8.0,30.05,NNE,33,2.0,9.0,9,0.00,,,0.00,weatherlink.com 1.10,2017-01-20 20:28:00,
2017-01-20 10:44:00,71.7,-99.9,30.04,North,355,13.0,14.0,0,0.00,,,0.00,weatherlink.com 1.10,2017-01-20 20:44:00,
2017-01-20 11:00:00,72.6,30.0,30.04,NNW,348,5.0,9.0,21,0.00,,,0.00,weatherlink.com 1.10,2017-01-20 21:00:00,
2017-01-20 11:15:00,73.8,28.0,30.03,NE,41,4.0,10.0,18,0.00,,,0.00,weatherlink.com 1.10,2017-01-20 21:15:00,
2017-01-20 11:31:00,74.4,35.0,30.03,ESE,109,9.0,12.0,24,0.00,,,0.00,weatherlink.com 1.10,2017-01-20 21:31:00,
2017-01-20 11:47:00,76.3,49.0,30.02,NNE,30,10.0,12.0,38,0.00,,,0.00,weatherlink.com 1.10,2017-01-20 21:47:00,
2017-01-20 12:03:00,75.0,42.0,30.01,NNE,32,7.0,11.0,31,0.00,,,0.00,weatherlink.com 1.10,2017-01-20 22:03:00,
2017-01-20 12:19:00,75.5,46.0,30.00,ENE,65,5.0,10.0,35,0.00,,,0.00,weatherlink.com 1.10,2017-01-20 22:19:00,
2017-01-20 12:35:00,76.3,46.0,30.00,ENE,59,4.0,15.0,34,0.00,,,0.00,weatherlink.com 1.10,2017-01-20 22:35:00,
2017-01-20 12:51:00,74.9,43.0,29.99,NNE,22,5.0,10.0,32,0.00,,,0.00,weatherlink.com 1.10,2017-01-20 22:51:00,
2017-01-20 13:07:00,74.5,34.0,29.98,ENE,71,2.0,9.0,23,0.00,,,0.00,weatherlink.com 1.10,2017-01-20 23:07:00,
2017-01-20 13:23:00,74.6,37.0,29.97,NE,38,1.0,9.0,26,0.00,,,0.00,weatherlink.com 1.10,2017-01-20 23:23:00,
2017-01-20 13:38:00,75.0,42.0,29.96,NE,54,3.0,8.0,31,0.00,,,0.00,weatherlink.com 1.10,2017-01-20 23:38:00,
2017-01-20 13:55:00,74.3,34.0,29.95,NE,45,7.0,7.0,23,0.00,,,0.00,weatherlink.com 1.10,2017-01-20 23:55:00,
2017-01-20 14:10:00,74.0,26.0,29.95,NNE,29,3.0,8.0,17,0.00,,,0.00,weatherlink.com 1.10,2017-01-21 00:10:00,
2017-01-20 14:26:00,74.2,33.0,29.95,NE,42,4.0,9.0,22,0.00,,,0.00,weatherlink.com 1.10,2017-01-21 00:26:00,
2017-01-20 14:42:00,74.4,39.0,29.95,NNE,21,4.0,8.0,28,0.00,,,0.00,weatherlink.com 1.10,2017-01-21 00:42:00,
2017-01-20 14:58:00,74.4,40.0,29.95,East,81,2.0,8.0,29,0.00,,,0.00,weatherlink.com 1.10,2017-01-21 00:58:00,
2017-01-20 15:13:00,73.9,41.0,29.95,ENE,65,5.0,7.0,30,0.00,,,0.00,weatherlink.com 1.10,2017-01-21 01:13:00,
2017-01-20 15:29:00,73.8,34.0,29.96,NE,37,1.0,8.0,23,0.00,,,0.00,weatherlink.com 1.10,2017-01-21 01:29:00,
2017-01-20 15:46:00,73.2,19.0,29.96,NE,42,3.0,6.0,13,0.00,,,0.00,weatherlink.com 1.10,2017-01-21 01:46:00,
2017-01-20 16:01:00,72.9,24.0,29.96,NE,51,0.0,3.0,16,0.00,,,0.00,weatherlink.com 1.10,2017-01-21 02:01:00,
2017-01-20 16:18:00,72.5,15.0,29.97,NE,51,2.0,5.0,11,0.00,,,0.00,weatherlink.com 1.10,2017-01-21 02:18:00,
2017-01-20 16:33:00,72.4,-99.9,29.97,NE,40,1.0,4.0,0,0.00,,,0.00,weatherlink.com 1.10,2017-01-21 02:33:00,
2017-01-20 16:49:00,72.1,-99.9,29.97,NE,37,0.0,4.0,0,0.00,,,0.00,weatherlink.com 1.10,2017-01-21 02:49:00,
2017-01-20 17:05:00,72.1,-99.9,29.98,NE,55,0.0,1.0,0,0.00,,,0.00,weatherlink.com 1.10,2017-01-21 03:05:00,
2017-01-20 17:21:00,71.7,-99.9,29.98,NE,55,0.0,1.0,0,0.00,,,0.00,weatherlink.com 1.10,2017-01-21 03:21:00,
2017-01-20 17:36:00,71.3,-99.9,29.98,NE,55,0.0,0.0,0,0.00,,,0.00,weatherlink.com 1.10,2017-01-21 03:36:00,
2017-01-20 17:53:00,70.8,-99.9,29.98,NE,55,0.0,0.0,0,0.00,,,0.00,weatherlink.com 1.10,2017-01-21 03:53:00,
2017-01-20 18:08:00,70.2,-99.9,29.99,NE,55,0.0,2.0,0,0.00,,,0.00,weatherlink.com 1.10,2017-01-21 04:08:00,
2017-01-20 18:24:00,69.5,-99.9,29.99,SSE,153,0.0,4.0,0,0.04,,,0.04,weatherlink.com 1.10,2017-01-21 04:24:00,
2017-01-20 18:40:00,69.0,-99.9,30.00,South,184,0.0,3.0,0,0.07,,,0.07,weatherlink.com 1.10,2017-01-21 04:40:00,
2017-01-20 18:56:00,68.6,-99.9,30.00,South,178,0.0,2.0,0,0.10,,,0.10,weatherlink.com 1.10,2017-01-21 04:56:00,
2017-01-20 19:12:00,68.4,-99.9,30.00,SSE,167,1.0,3.0,0,0.11,,,0.11,weatherlink.com 1.10,2017-01-21 05:12:00,
2017-01-20 19:28:00,68.1,-99.9,30.00,SE,136,0.0,4.0,0,0.08,,,0.12,weatherlink.com 1.10,2017-01-21 05:28:00,
2017-01-20 19:44:00,67.8,-99.9,30.01,SSE,163,1.0,7.0,0,0.05,,,0.13,weatherlink.com 1.10,2017-01-21 05:44:00,
2017-01-20 19:59:00,67.7,-99.9,30.01,SSE,157,2.0,5.0,0,0.04,,,0.14,weatherlink.com 1.10,2017-01-21 05:59:00,